"Period start","avg(HW err(1)/warn(2) (#))","avg(Visibility (m))","avg(Weather code (#))","avg(Precip intensity (mm/h))","min(HW err(1)/warn(2) (#))","max(HW err(1)/warn(2) (#))","std(HW err(1)/warn(2) (#))","med(HW err(1)/warn(2) (#))","min(Visibility (m))","max(Visibility (m))","std(Visibility (m))","med(Visibility (m))","min(Weather code (#))","max(Weather code (#))","std(Weather code (#))","med(Weather code (#))","min(Precip intensity (mm/h))","max(Precip intensity (mm/h))","std(Precip intensity (mm/h))","med(Precip intensity (mm/h))"
2013-08-19 00:00:00,2,50000,0,0.00,2,2,0,2,50000,50000,0,50000,0,0,0,0,0.00,0.00,0.00,0.00
2013-08-19 00:10:00,2,49603,0,0.00,2,2,0,2,47715,50000,719,50000,0,0,0,0,0.00,0.00,0.00,0.00
2013-08-19 00:20:00,2,48417,0,0.00,2,2,0,2,40371,50000,2847,50000,0,0,0,0,0.00,0.00,0.00,0.00
2013-08-19 00:30:00,2,50000,0,0.00,2,2,0,2,50000,50000,0,50000,0,0,0,0,0.00,0.00,0.00,0.00
2013-08-19 00:40:00,2,47701,0,0.00,2,2,0,2,40572,50000,2787,48218,0,0,0,0,0.00,0.00,0.00,0.00
2013-08-19 00:50:00,2,47944,0,0.00,2,2,0,2,39789,50000,3588,50000,0,0,0,0,0.00,0.00,0.00,0.00
2013-08-19 01:00:00,2,47381,0,0.00,2,2,0,2,40595,50000,3101,48678,0,0,0,0,0.00,0.00,0.00,0.00
2013-08-19 01:10:00,2,49188,0,0.00,2,2,0,2,43977,50000,1846,50000,0,0,0,0,0.00,0.00,0.00,0.00
2013-08-19 01:20:00,2,49058,0,0.00,2,2,0,2,46249,50000,1426,50000,0,0,0,0,0.00,0.00,0.00,0.00
2013-08-19 01:30:00,2,48295,0,0.00,2,2,0,2,43453,50000,2531,49897,0,0,0,0,0.00,0.00,0.00,0.00
2013-08-19 01:40:00,2,49763,0,0.00,2,2,0,2,47627,50000,712,50000,0,0,0,0,0.00,0.00,0.00,0.00
2013-08-19 01:50:00,2,50000,0,0.00,2,2,0,2,50000,50000,0,50000,0,0,0,0,0.00,0.00,0.00,0.00
2013-08-19 02:00:00,2,48973,0,0.00,2,2,0,2,41013,50000,2666,50000,0,0,0,0,0.00,0.00,0.00,0.00
2013-08-19 02:10:00,2,49983,0,0.00,2,2,0,2,49827,50000,52,50000,0,0,0,0,0.00,0.00,0.00,0.00
2013-08-19 02:20:00,2,49712,0,0.00,2,2,0,2,48141,50000,606,50000,0,0,0,0,0.00,0.00,0.00,0.00
2013-08-19 02:30:00,2,46847,0,0.00,2,2,0,2,37746,50000,4787,50000,0,0,0,0,0.00,0.00,0.00,0.00
2013-08-19 02:40:00,2,47742,0,0.00,2,2,0,2,33526,50000,5077,50000,0,0,0,0,0.00,0.00,0.00,0.00
2013-08-19 02:50:00,2,49342,0,0.00,2,2,0,2,43582,50000,1921,50000,0,0,0,0,0.00,0.00,0.00,0.00
2013-08-19 03:00:00,2,49739,0,0.00,2,2,0,2,47389,50000,783,50000,0,0,0,0,0.00,0.00,0.00,0.00
2013-08-19 03:10:00,2,48032,0,0.00,2,2,0,2,38712,50000,3629,50000,0,0,0,0,0.00,0.00,0.00,0.00
2013-08-19 03:20:00,2,48838,0,0.00,2,2,0,2,46508,50000,1447,50000,0,0,0,0,0.00,0.00,0.00,0.00
2013-08-19 03:30:00,2,47222,0,0.00,2,2,0,2,39767,50000,3080,47872,0,0,0,0,0.00,0.00,0.00,0.00
2013-08-19 03:40:00,2,48569,0,0.00,2,2,0,2,40442,50000,2863,50000,0,0,0,0,0.00,0.00,0.00,0.00
2013-08-19 03:50:00,2,49193,0,0.00,2,2,0,2,48011,50000,697,48974,0,0,0,0,0.00,0.00,0.00,0.00
2013-08-19 04:00:00,2,48639,0,0.00,2,2,0,2,44850,50000,1840,50000,0,0,0,0,0.00,0.00,0.00,0.00
2013-08-19 04:10:00,2,49543,0,0.00,2,2,0,2,46757,50000,972,50000,0,0,0,0,0.00,0.00,0.00,0.00
2013-08-19 04:20:00,2,48737,0,0.00,2,2,0,2,45963,50000,1665,50000,0,0,0,0,0.00,0.00,0.00,0.00
2013-08-19 04:30:00,2,48642,0,0.00,2,2,0,2,45710,50000,1398,48860,0,0,0,0,0.00,0.00,0.00,0.00
2013-08-19 04:40:00,2,46614,0,0.00,2,2,0,2,34230,50000,4585,47922,0,0,0,0,0.00,0.00,0.00,0.00
2013-08-19 04:50:00,2,48806,0,0.00,2,2,0,2,45436,50000,1670,49812,0,0,0,0,0.00,0.00,0.00,0.00
2013-08-19 05:00:00,2,48009,0,0.00,2,2,0,2,41633,50000,2743,49536,0,0,0,0,0.00,0.00,0.00,0.00
2013-08-19 05:10:00,2,46517,0,0.00,2,2,0,2,39425,50000,3932,48298,0,0,0,0,0.00,0.00,0.00,0.00
2013-08-19 05:20:00,2,47495,0,0.00,2,2,0,2,44198,50000,1919,47344,0,0,0,0,0.00,0.00,0.00,0.00
2013-08-19 05:30:00,1,43513,0,0.00,0,2,1,2,19831,50000,10866,50000,0,0,0,0,0.00,0.00,0.00,0.00
2013-08-19 05:40:00,1,49387,0,0.00,0,2,1,0,46479,50000,1099,50000,0,0,0,0,0.00,0.00,0.00,0.00
2013-08-19 05:50:00,2,50000,0,0.00,0,2,1,2,50000,50000,0,50000,0,0,0,0,0.00,0.00,0.00,0.00
2013-08-19 06:00:00,2,48595,0,0.00,2,2,0,2,43157,50000,2175,49798,0,0,0,0,0.00,0.00,0.00,0.00
2013-08-19 06:10:00,1,46846,0,0.00,0,2,1,2,40998,50000,3082,47000,0,0,0,0,0.00,0.00,0.00,0.00
2013-08-19 06:20:00,1,48395,0,0.00,0,2,1,0,42692,50000,2581,50000,0,0,0,0,0.00,0.00,0.00,0.00
2013-08-19 06:30:00,0,49725,0,0.00,0,2,1,0,48639,50000,527,50000,0,0,0,0,0.00,0.00,0.00,0.00
2013-08-19 06:40:00,2,49482,0,0.00,0,2,1,2,46848,50000,974,50000,0,0,0,0,0.00,0.00,0.00,0.00
2013-08-19 06:50:00,2,49999,0,0.00,2,2,0,2,49988,50000,4,50000,0,0,0,0,0.00,0.00,0.00,0.00
2013-08-19 07:00:00,2,50000,0,0.00,0,2,1,2,50000,50000,0,50000,0,0,0,0,0.00,0.00,0.00,0.00
2013-08-19 07:10:00,2,50000,0,0.00,0,2,1,2,50000,50000,0,50000,0,0,0,0,0.00,0.00,0.00,0.00
2013-08-19 07:20:00,2,49966,0,0.00,2,2,0,2,49663,50000,101,50000,0,0,0,0,0.00,0.00,0.00,0.00
2013-08-19 07:30:00,2,50000,0,0.00,2,2,0,2,50000,50000,0,50000,0,0,0,0,0.00,0.00,0.00,0.00
2013-08-19 07:40:00,2,50000,0,0.00,2,2,0,2,50000,50000,0,50000,0,0,0,0,0.00,0.00,0.00,0.00
2013-08-19 07:50:00,2,49143,0,0.00,2,2,0,2,45866,50000,1308,50000,0,0,0,0,0.00,0.00,0.00,0.00
2013-08-19 08:00:00,2,36256,54,0.47,2,2,0,2,19612,50000,11303,33272,51,61,5,51,0.00,1.10,0.38,0.33
2013-08-19 08:10:00,2,13832,58,1.86,2,2,0,2,10362,20211,3179,13496,52,61,4,61,1.15,2.60,0.51,1.92
2013-08-19 08:20:00,2,16383,61,1.11,2,2,0,2,9039,27131,6469,14039,61,61,0,61,0.15,2.50,0.82,0.93
2013-08-19 08:30:00,2,18586,61,1.00,2,2,0,2,12561,27745,3848,17980,61,61,0,61,0.40,1.85,0.40,0.90
2013-08-19 08:40:00,2,26621,61,0.59,2,2,0,2,21013,37218,4739,25610,61,61,0,61,0.15,1.65,0.45,0.35
2013-08-19 08:50:00,2,22398,61,2.24,2,2,0,2,17762,27815,3117,21630,61,61,0,61,0.90,4.05,0.97,2.07
2013-08-19 09:00:00,2,23622,61,1.21,2,2,0,2,20040,27947,2220,23750,61,61,0,61,0.35,2.50,0.60,1.18
2013-08-19 09:10:00,2,17697,54,0.89,2,2,0,2,7024,25848,6654,18709,51,61,4,52,0.35,4.10,1.08,0.50
2013-08-19 09:20:00,2,6573,57,1.08,2,2,0,2,5436,7782,778,6734,52,61,4,61,0.65,1.85,0.34,0.97
2013-08-19 09:30:00,2,4668,53,3.17,2,2,0,2,3238,5701,740,4792,52,62,3,52,1.40,12.00,3.15,1.70
2013-08-19 09:40:00,2,2884,56,2.37,2,2,0,2,2173,3597,492,2811,52,61,4,52,1.25,4.30,0.94,2.03
2013-08-19 09:50:00,2,4900,56,1.47,2,2,0,2,3691,6421,842,4868,52,61,4,56,0.90,2.65,0.51,1.33
2013-08-19 10:00:00,2,8894,56,0.88,2,2,0,2,5100,12616,2219,8768,52,61,4,52,0.55,1.65,0.28,0.80
2013-08-19 10:10:00,2,9978,52,1.29,2,2,0,2,7490,14032,2234,8910,52,52,0,52,0.70,2.05,0.42,1.25
2013-08-19 10:20:00,2,19459,52,1.97,2,2,0,2,14585,34964,5719,17616,52,52,0,52,0.95,2.75,0.49,1.90
2013-08-19 10:30:00,2,21565,54,2.34,2,2,0,2,12861,29764,5624,20604,52,61,4,52,1.10,3.95,0.79,2.33
2013-08-19 10:40:00,2,24821,55,1.77,2,2,0,2,15981,35349,5444,24792,52,61,4,52,0.70,3.55,0.78,1.52
2013-08-19 10:50:00,2,15836,58,2.78,2,2,0,2,12075,21603,2467,15860,52,61,4,61,1.30,5.05,1.01,2.48
2013-08-19 11:00:00,2,11524,61,4.13,2,2,0,2,9160,16126,1937,11282,61,61,0,61,0.95,8.55,2.60,3.32
2013-08-19 11:10:00,2,12419,61,3.37,2,2,0,2,10282,17000,1865,11870,61,61,0,61,1.95,5.10,0.99,3.25
2013-08-19 11:20:00,2,12009,61,3.03,2,2,0,2,10007,14534,1463,11900,61,61,0,61,1.30,5.90,1.43,2.62
2013-08-19 11:30:00,2,15948,58,1.36,2,2,0,2,12734,18601,1725,15844,52,61,4,61,0.55,2.30,0.58,1.48
2013-08-19 11:40:00,2,16735,55,0.70,2,2,0,2,13726,22694,2872,15688,51,61,5,51,0.10,4.55,1.29,0.30
2013-08-19 11:50:00,2,10129,58,0.36,2,2,0,2,4276,15386,4110,10263,51,61,5,61,0.15,0.85,0.21,0.30
2013-08-19 12:00:00,2,4039,52,1.23,2,2,0,2,3440,5348,528,3969,51,52,0,52,0.10,3.45,1.11,0.85
2013-08-19 12:10:00,2,3335,53,2.28,2,2,0,2,2215,4970,845,3328,51,61,3,52,0.15,11.25,3.23,0.85
2013-08-19 12:20:00,2,2312,61,3.39,2,2,0,2,1839,2658,247,2368,61,61,0,61,1.70,6.60,1.55,3.00
2013-08-19 12:30:00,2,2186,61,1.82,2,2,0,2,1772,2850,330,2122,61,61,0,61,1.10,2.80,0.53,1.80
2013-08-19 12:40:00,2,1837,61,2.08,2,2,0,2,1651,2108,143,1816,61,61,0,61,0.55,4.15,1.10,1.93
2013-08-19 12:50:00,2,1985,61,0.83,2,2,0,2,1689,2398,227,1891,61,61,0,61,0.20,1.40,0.39,1.02
2013-08-19 13:00:00,2,1864,61,1.00,2,2,0,2,1596,2097,171,1886,61,61,0,61,0.45,2.45,0.60,0.73
2013-08-19 13:10:00,2,1964,62,0.95,2,2,0,2,1496,2747,386,1902,61,67,2,61,0.15,2.45,0.83,0.57
2013-08-19 13:20:00,2,1601,67,1.64,2,2,0,2,1341,1900,163,1578,67,67,0,67,0.50,4.00,1.06,1.27
2013-08-19 13:30:00,2,1715,63,1.66,2,2,0,2,1401,2067,169,1748,61,67,3,61,0.60,3.70,0.85,1.50
2013-08-19 13:40:00,2,2058,61,1.89,2,2,0,2,1678,2761,311,2004,61,61,0,61,1.10,2.70,0.55,1.83
2013-08-19 13:50:00,2,2235,55,1.98,2,2,0,2,1778,2959,333,2198,52,61,4,52,0.65,4.40,1.16,1.55
2013-08-19 14:00:00,2,2325,65,0.54,2,2,0,2,1778,2873,412,2230,61,71,5,61,0.00,2.70,0.80,0.20
2013-08-19 14:10:00,2,4518,46,0.04,2,2,0,2,2962,8767,1649,4102,10,71,29,66,0.00,0.30,0.09,0.00
2013-08-19 14:20:00,2,4815,35,0.10,2,2,0,2,2803,9265,1927,4608,10,61,21,41,0.00,0.40,0.14,0.03
2013-08-19 14:30:00,2,11063,10,0.00,2,2,0,2,4693,14750,2639,11564,10,10,0,10,0.00,0.00,0.00,0.00
2013-08-19 14:40:00,2,11735,3,0.00,2,2,0,2,5600,20239,4119,11022,0,10,5,0,0.00,0.00,0.00,0.00
2013-08-19 14:50:00,2,30447,0,0.00,2,2,0,2,17854,42258,7816,30958,0,0,0,0,0.00,0.00,0.00,0.00
2013-08-19 15:00:00,2,35101,0,0.00,2,2,0,2,23430,41315,6146,36736,0,0,0,0,0.00,0.00,0.00,0.00
2013-08-19 15:10:00,2,16140,0,0.00,2,2,0,2,10359,32215,6133,14150,0,0,0,0,0.00,0.00,0.00,0.00
2013-08-19 15:20:00,2,7871,22,0.06,2,2,0,2,5518,10856,1624,7734,0,41,19,25,0.00,0.35,0.10,0.00
2013-08-19 15:30:00,2,6057,10,0.00,2,2,0,2,3035,10196,2263,5360,10,10,0,10,0.00,0.00,0.00,0.00
2013-08-19 15:40:00,2,5550,45,0.46,2,2,0,2,3608,8158,1300,5589,10,52,12,51,0.00,2.55,0.73,0.25
2013-08-19 15:50:00,2,10558,13,0.00,2,2,0,2,6050,14581,2442,11366,10,41,9,10,0.00,0.00,0.00,0.00
2013-08-19 16:00:00,2,22318,3,0.00,2,2,0,2,3422,39902,12226,24980,0,10,5,0,0.00,0.00,0.00,0.00
2013-08-19 16:10:00,2,32445,0,0.00,2,2,0,2,5456,48978,13816,34782,0,0,0,0,0.00,0.00,0.00,0.00
2013-08-19 16:20:00,2,29932,0,0.00,2,2,0,2,9791,50000,13834,28950,0,0,0,0,0.00,0.00,0.00,0.00
2013-08-19 16:30:00,2,11938,0,0.00,2,2,0,2,6870,23813,5732,9506,0,0,0,0,0.00,0.00,0.00,0.00
2013-08-19 16:40:00,2,23316,0,0.00,2,2,0,2,10429,37376,7630,22970,0,0,0,0,0.00,0.00,0.00,0.00
2013-08-19 16:50:00,2,22686,0,0.00,2,2,0,2,11933,38368,7799,20819,0,0,0,0,0.00,0.00,0.00,0.00
2013-08-19 17:00:00,2,35353,0,0.00,2,2,0,2,13698,50000,13876,36767,0,0,0,0,0.00,0.00,0.00,0.00
2013-08-19 17:10:00,2,48239,0,0.00,2,2,0,2,40419,50000,2831,49502,0,0,0,0,0.00,0.00,0.00,0.00
2013-08-19 17:20:00,2,48058,0,0.00,2,2,0,2,41041,50000,3121,50000,0,0,0,0,0.00,0.00,0.00,0.00
2013-08-19 17:30:00,2,49898,0,0.00,2,2,0,2,49254,50000,230,50000,0,0,0,0,0.00,0.00,0.00,0.00
2013-08-19 17:40:00,2,48769,0,0.00,2,2,0,2,41499,50000,2495,49920,0,0,0,0,0.00,0.00,0.00,0.00
2013-08-19 17:50:00,2,36263,0,0.00,2,2,0,2,19639,50000,11204,35408,0,0,0,0,0.00,0.00,0.00,0.00
2013-08-19 18:00:00,2,32362,0,0.00,2,2,0,2,14583,50000,11048,32404,0,0,0,0,0.00,0.00,0.00,0.00
2013-08-19 18:10:00,2,28719,8,0.04,2,2,0,2,11900,44094,10485,28934,0,40,16,0,0.00,0.25,0.08,0.00
2013-08-19 18:20:00,2,30787,10,0.01,2,2,0,2,12009,47894,10342,28592,0,51,20,0,0.00,0.05,0.02,0.00
2013-08-19 18:30:00,2,31448,0,0.00,2,2,0,2,9346,50000,15408,32219,0,0,0,0,0.00,0.00,0.00,0.00
2013-08-19 18:40:00,2,17692,23,0.21,2,2,0,2,8558,35929,7545,16645,0,61,29,0,0.00,0.85,0.32,0.00
2013-08-19 18:50:00,2,21152,15,0.07,2,2,0,2,10209,44580,10883,17335,0,51,23,0,0.00,0.50,0.15,0.00
2013-08-19 19:00:00,2,22584,0,0.00,2,2,0,2,6822,49175,16860,13656,0,0,0,0,0.00,0.00,0.00,0.00
2013-08-19 19:10:00,2,11799,19,0.09,2,2,0,2,4705,29843,7707,9083,0,61,27,0,0.00,0.65,0.20,0.00
2013-08-19 19:20:00,2,14295,12,0.25,2,2,0,2,4580,25913,8129,10648,0,40,15,10,0.00,2.45,0.74,0.00
2013-08-19 19:30:00,2,22615,0,0.00,2,2,0,2,9419,41030,9900,20902,0,0,0,0,0.00,0.00,0.00,0.00
2013-08-19 19:40:00,2,46046,0,0.00,2,2,0,2,37442,50000,4905,48816,0,0,0,0,0.00,0.00,0.00,0.00
2013-08-19 19:50:00,2,17994,0,0.00,2,2,0,2,8166,38757,9941,13486,0,0,0,0,0.00,0.00,0.00,0.00
2013-08-19 20:00:00,2,16971,0,0.00,2,2,0,2,5136,47355,14632,8549,0,0,0,0,0.00,0.00,0.00,0.00
2013-08-19 20:10:00,2,8743,34,0.19,2,2,0,2,4404,14034,2698,7952,0,51,22,46,0.00,0.50,0.20,0.10
2013-08-19 20:20:00,2,26502,11,0.00,2,2,0,2,8192,50000,16937,19676,0,51,14,10,0.00,0.00,0.00,0.00
2013-08-19 20:30:00,2,10404,24,0.69,2,2,0,2,4798,28211,6644,7850,0,61,30,0,0.00,4.65,1.43,0.00
2013-08-19 20:40:00,2,10740,26,0.62,2,2,0,2,2173,37055,9684,7274,0,52,22,10,0.00,2.45,0.94,0.00
2013-08-19 20:50:00,2,16400,6,0.00,2,2,0,2,3653,35455,13241,8003,0,10,5,10,0.00,0.00,0.00,0.00
2013-08-19 21:00:00,2,12150,10,0.00,2,2,0,2,6419,22079,4873,9922,10,10,0,10,0.00,0.00,0.00,0.00
2013-08-19 21:10:00,2,21394,2,0.00,2,2,0,2,5795,44880,10571,18210,0,10,4,0,0.00,0.00,0.00,0.00
2013-08-19 21:20:00,2,5491,44,1.67,2,2,0,2,2684,10550,2720,4788,0,52,16,52,0.00,5.20,1.86,0.82
2013-08-19 21:30:00,2,24582,0,0.00,2,2,0,2,8134,44243,12535,23309,0,0,0,0,0.00,0.00,0.00,0.00
2013-08-19 21:40:00,2,4116,49,0.55,2,2,0,2,1706,7991,2048,3736,0,71,25,61,0.00,2.85,0.87,0.15
2013-08-19 21:50:00,2,3140,57,0.88,2,2,0,2,1709,6740,1348,2911,10,67,16,61,0.00,3.40,0.97,0.50
2013-08-19 22:00:00,2,17998,26,0.07,2,2,0,2,4799,42419,11782,15029,10,51,20,10,0.00,0.30,0.11,0.00
2013-08-19 22:10:00,2,25400,36,0.01,2,2,0,2,7729,46414,13100,25174,0,61,27,51,0.00,0.10,0.03,0.00
2013-08-19 22:20:00,2,29786,0,0.00,2,2,0,2,12046,41577,9096,31772,0,0,0,0,0.00,0.00,0.00,0.00
2013-08-19 22:30:00,2,13126,24,0.03,2,2,0,2,3322,29448,8623,11403,0,61,30,0,0.00,0.10,0.04,0.00
2013-08-19 22:40:00,2,27140,6,0.00,2,2,0,2,9098,50000,14619,21363,0,10,5,10,0.00,0.00,0.00,0.00
2013-08-19 22:50:00,2,49969,0,0.00,2,2,0,2,49690,50000,93,50000,0,0,0,0,0.00,0.00,0.00,0.00
2013-08-19 23:00:00,2,47626,0,0.00,2,2,0,2,42038,50000,2699,48837,0,0,0,0,0.00,0.00,0.00,0.00
2013-08-19 23:10:00,2,21730,1,0.00,2,2,0,2,3422,50000,20497,7516,0,10,3,0,0.00,0.00,0.00,0.00
2013-08-19 23:20:00,2,5441,10,0.00,2,2,0,2,3172,9729,2294,4405,10,10,0,10,0.00,0.00,0.00,0.00
2013-08-19 23:30:00,2,2888,39,0.96,2,2,0,2,1806,4777,962,2864,10,71,21,46,0.00,3.75,1.32,0.00
2013-08-19 23:40:00,2,2035,71,0.48,2,2,0,2,1296,2919,446,2144,71,71,0,71,0.05,2.05,0.67,0.10
2013-08-19 23:50:00,2,2559,67,0.32,2,2,0,2,2107,3109,300,2576,61,71,3,67,0.05,1.25,0.35,0.20
